Location: Dos Palmas
(32.4468°N, 116.8732°W)
Time: 13:33:46
(UTC+00:00)

OBJECT-B - Pass Details

Date: 20 June 2021
Orbit: 414 x 423 km, 97.0° (Epoch: 05 June)

Event Time Altitude Azimuth Distance (km) Brightness Sun altitude
Exits shadow 03:36:41 - 166° (SSE) 1,957 3.7 -7.9°
Reaches altitude 10° 03:37:46 10° 165° (SSE) 1,486 3.1 -8.1°
Maximum altitude 03:40:56 81° 80° (E) 425 0.7 -8.6°
Drops below altitude 10° 03:44:08 10° 351° (N) 1,494 4.2 -9.2°
Sets 03:46:08 0° 351° (N) 2,359 5.3 -9.5°
